Weather History for Charlottesville, VA

Change the Weather History Date:

Sunday, December 30, 2012

  Actual Average Record
Temperature  
Mean Temperature 43 °F 35 °F  
Max Temperature 53 °F 44 °F 79 °F (1984)
Min Temperature 33 °F 26 °F -2 °F (1917)
Degree Days  
Heating Degree Days 22 30  
Month to date heating degree days 625 815  
Since 1 July heating degree days 1534 1706  
Cooling Degree Days 0 0  
Month to date cooling degree days 0 0  
Year to date cooling degree days 1604 1035  
Moisture  
Dew Point 16 °F    
Average Humidity 41    
Maximum Humidity 52    
Minimum Humidity 30    
Precipitation  
Precipitation 0.00 in 0.06 in 0.11 in (2007)
Month to date precipitation 1.58 3.08  
Year to date precipitation 35.31 42.64  
Sea Level Pressure  
Sea Level Pressure 30.17 in    
Wind  
Wind Speed 7 mph (WNW)    
Max Wind Speed 25 mph    
Max Gust Speed 37 mph    
Visibility 10 miles    
Events      
T = Trace of Precipitation, MM = Missing Value Source: NWS Daily Summary

Daily Weather History Graph

Daily Weather History Graph

Search for Another Location

Airport:

Trip Planner

Search our weather history database for the weather conditions in past years. The results will help you decide how hot, cold, wet, or windy it might be!

Date:

Astronomy

Dec. 30, 2012 Rise Set
Actual Time 7:30 AM EST 5:03 PM EST
Civil Twilight 7:00 AM EST 5:32 PM EST
Nautical Twilight 6:27 AM EST 6:05 PM EST
Astronomical Twilight 5:55 AM EST 6:37 PM EST
Moon 7:30 PM EST (12/30) 8:40 AM EST (12/30)
Length of Visible Light 10h 32m
Length of Day
9h 33m
Waning Gibbous, 95% of the Moon is Illuminated
Dec 30
Waning Gibbous
Jan 4
Last Quarter
Jan 11
New
Jan 18
First Quarter
Jan 26
Full

Hourly Weather History & Observations

Time (EST) Temp. Windchill Dew Point Humidity Pressure Visibility Wind Dir Wind Speed Gust Speed Precip Events Conditions
12:53 AM 37.9 °F 33.5 °F 19.9 °F 48% 29.89 in 10.0 mi West 5.8 mph - N/A   Mostly Cloudy
1:53 AM 37.9 °F 30.9 °F 19.0 °F 47% 29.92 in 10.0 mi WNW 10.4 mph - N/A   Mostly Cloudy
2:53 AM 36.0 °F 30.3 °F 18.0 °F 48% 29.96 in 10.0 mi NW 6.9 mph - N/A   Mostly Cloudy
3:53 AM 35.1 °F - 19.0 °F 52% 29.98 in 10.0 mi Calm Calm - N/A   Overcast
4:53 AM 36.0 °F 31.1 °F 18.0 °F 48% 29.99 in 10.0 mi Variable 5.8 mph - N/A   Mostly Cloudy
5:53 AM 36.0 °F - 18.0 °F 48% 30.04 in 10.0 mi Calm Calm - N/A   Overcast
6:53 AM 36.0 °F 27.5 °F 16.0 °F 44% 30.09 in 10.0 mi NW 12.7 mph 23.0 mph N/A   Partly Cloudy
7:53 AM 34.0 °F 26.0 °F 16.0 °F 48% 30.13 in 10.0 mi NW 10.4 mph 24.2 mph N/A   Clear
8:53 AM 35.1 °F 24.8 °F 17.1 °F 48% 30.16 in 10.0 mi NW 17.3 mph 24.2 mph N/A   Clear
9:53 AM 37.0 °F 28.1 °F 17.1 °F 44% 30.19 in 10.0 mi NW 15.0 mph 28.8 mph N/A   Clear
10:53 AM 37.9 °F 27.9 °F 16.0 °F 41% 30.20 in 10.0 mi NW 19.6 mph 29.9 mph N/A   Clear
11:53 AM 39.0 °F 29.9 °F 15.1 °F 38% 30.18 in 10.0 mi NW 17.3 mph 32.2 mph N/A   Clear
12:53 PM 39.9 °F 31.4 °F 15.1 °F 36% 30.16 in 10.0 mi NW 16.1 mph 34.5 mph N/A   Clear
1:53 PM 41.0 °F 33.9 °F 14.0 °F 33% 30.20 in 10.0 mi WNW 12.7 mph 18.4 mph N/A   Clear
2:53 PM 42.1 °F 39.2 °F 14.0 °F 32% 30.22 in 10.0 mi Variable 4.6 mph - N/A   Clear
3:53 PM 42.1 °F - 14.0 °F 32% 30.25 in 10.0 mi Calm Calm - N/A   Clear
4:53 PM 39.0 °F 34.8 °F 12.0 °F 33% 30.28 in 10.0 mi WNW 5.8 mph - N/A   Clear
5:53 PM 37.0 °F - 12.0 °F 36% 30.29 in 10.0 mi Calm Calm - N/A   Clear
6:53 PM 37.0 °F - 12.0 °F 36% 30.28 in 10.0 mi Calm Calm - N/A   Clear
7:53 PM 37.9 °F - 12.9 °F 36% 30.31 in 10.0 mi Calm Calm - N/A   Clear
8:53 PM 41.0 °F 39.0 °F 15.1 °F 35% 30.32 in 10.0 mi West 3.5 mph - N/A   Clear
9:53 PM 37.0 °F - 15.1 °F 41% 30.33 in 10.0 mi Calm Calm - N/A   Clear
10:53 PM 37.0 °F 34.5 °F 15.1 °F 41% 30.33 in 10.0 mi Variable 3.5 mph - N/A   Clear
11:53 PM 36.0 °F - 12.9 °F 39% 30.32 in 10.0 mi Calm Calm - N/A   Clear